Tracking 18942 objects as of 17-Jan-2018
HD Live streaming from Space Station
objects crossing your sky now

SYRACUSE 3B

Track SYRACUSE 3B now!
SYRACUSE 3B is classified as:


NORAD ID: 29273
Int'l Code: 2006-033B
Perigee: 35,773.2 km
Apogee: 35,813.8 km
Inclination: 0.0 °
Period: 1,436.1 minutes
Semi major axis: 42164 km
RCS: 25.7711 m2 (large)
Launch date: August 11, 2006
Source: France (FR)
Launch site: FRENCH GUIANA (FRGUI)

Syracuse 3B is a French military geostationary satellite. It carries four spot beams in SHF frequencies and two spot beams in EHF frequencies.
aabbcc
Your satellite tracking list
Your tracking list is empty




NASA's NSSDC Master Catalog

Two Line Element Set (TLE):
1 29273U 06033B   18015.92965852 -.00000042 +00000-0 +00000-0 0  9993
2 29273 000.0250 087.0382 0004814 215.7401 141.9884 01.00272617041890
Source of the keplerian elements: AFSPC